This is the latest recevied weather packets stored in our database for station/object W5GMO. If no packets are shown the sender has not sent any weather packets the latest 10 day(s).
| Time | Temp. | Humidity | Pressure | Rain* | Wind** | Luminosity | Snow |
|---|---|---|---|---|---|---|---|
| 1777432028 | 14.44° C | 66% | 1017.7 hPa | 0 mm | - | 0 W/m² | - |
| 1777430204 | 15° C | 66% | 1018 hPa | 0 mm | - | 0 W/m² | - |
| 1777427772 | 14.44° C | 66% | 1018.2 hPa | 0 mm | - | 0 W/m² | - |
| 1777426560 | 14.44° C | 66% | 1017.8 hPa | 0 mm | - | 0 W/m² | - |
| 1777424734 | 15° C | 65% | 1016.9 hPa | 0 mm | - | 0 W/m² | - |
| 1777423520 | 15° C | 65% | 1016.5 hPa | 0 mm | - | 0 W/m² | - |
| 1777422611 | 15.56° C | 66% | 1016.6 hPa | 0 mm | - | 0 W/m² | - |
| 1777415326 | 17.22° C | 54% | 1017.2 hPa | 0 mm | - | 58 W/m² | - |
| 1777412599 | 16.67° C | 55% | 1017.3 hPa | 0 mm | - | 54 W/m² | - |
| 1777410479 | 16.67° C | 58% | 1017.5 hPa | 0 mm | - | 86 W/m² | - |
| 1777409570 | 16.67° C | 59% | 1017.6 hPa | 0 mm | - | 89 W/m² | - |
| 1777407750 | 16.11° C | 58% | 1017.6 hPa | 0 mm | - | 124 W/m² | - |
| 1777406227 | 16.11° C | 57% | 1017.9 hPa | 0 mm | - | 207 W/m² | - |
| 1777403804 | 15.56° C | 58% | 1018.4 hPa | 0 mm | - | 196 W/m² | - |
| 1777403503 | 15.56° C | 59% | 1018.5 hPa | 0 mm | - | 164 W/m² | - |
| 1777403197 | 15.56° C | 59% | 1018.6 hPa | 0 mm | - | 177 W/m² | - |
| 1777402894 | 15.56° C | 59% | 1018.7 hPa | 0 mm | - | 168 W/m² | - |
| 1777402589 | 15.56° C | 59% | 1018.6 hPa | 0 mm | - | 229 W/m² | - |
| 1777401982 | 15.56° C | 59% | 1018.8 hPa | 0 mm | - | 272 W/m² | - |
| 1777401378 | 15° C | 60% | 1018.9 hPa | 0 mm | - | 254 W/m² | - |
| 1777400769 | 14.44° C | 60% | 1019.2 hPa | 0 mm | - | 246 W/m² | - |
| 1777399859 | 14.44° C | 59% | 1019.2 hPa | 0 mm | - | 252 W/m² | - |
| 1777399556 | 14.44° C | 60% | 1019.4 hPa | 0 mm | - | 263 W/m² | - |
| 1777398951 | 14.44° C | 59% | 1019.6 hPa | 0 mm | - | 220 W/m² | - |
| 1777397434 | 13.89° C | 60% | 1019.7 hPa | 0 mm | - | 230 W/m² | - |
* Rain latest hour (hover to see other rain measurements)
** Current wind speed in m/s (hover to see current wind gust speed)